Location: fuzhou
(26.1169°N, 119.3250°E)
Time: 11:13:28
(UTC+08:00)

Tiangong 1 - Visible Passes

Search period start: 24 January 2018 00:00
Search period end: 03 February 2018 00:00
Orbit: 260 x 286 km, 42.8° (Epoch: 23 January)

Date Brightness Start Highest point End Pass type
(mag) Time Alt. Az. Time Alt. Az. Time Alt. Az.
24 Jan 2.9 19:00:20 10° NW 19:01:03 16° NNW 19:01:03 16° NNW visible
25 Jan 1.3 18:59:05 10° NW 19:00:54 44° WNW 19:00:54 44° WNW visible
26 Jan 2.2 18:58:00 10° WNW 19:00:11 29° SW 19:00:55 24° S visible
27 Jan 3.6 18:57:24 10° WSW 18:58:38 13° SW 18:59:52 10° SSW visible
